Regional Weather Roundup
Issued by NWS

Home | Current Version | Previous Version | Graphics & Text | Print | Product List | Glossary Off
Versions: 1 2 3 4 5 6 7 8 9 10 11 12 13 14 15 16 17 18 19 20 21 22 23 24 25 26 27 28 29 30 31 32 33 34 35 36 37 38 39 40 41 42 43 44 45 46 47 48 49 50

000
ASUS43 KLSX 041707
RWRMO

WEATHER SUMMARY FOR MISSOURI
NATIONAL WEATHER SERVICE SPRINGFIELD MO
1200 PM CDT SAT JUL 04 2015

NOTE: "FAIR" INDICATES FEW OR NO CLOUDS BELOW 12,000 FEET WITH NO
       SIGNIFICANT WEATHER AND/OR OBSTRUCTIONS TO VISIBILITY.
       CURRENT SKY AND/OR WEATHER CONDITIONS ARE NOT AVAILABLE FOR
       CHILLICOTHE AND FARMINGTON.

MOZ001>031-035>038-043-044-053-054-041800-
...NORTHERN AND WESTERN MISSOURI...

CITY           SKY/WX    TMP DP  RH WIND       PRES   REMARKS
KANSAS CTY INT PTSUNNY   77  62  59 E5        30.02F
KANSAS C DTWN  SUNNY     79  61  53 CALM      30.01F
LEE`S SUMMIT   SUNNY     77  61  57 CALM      30.03F
ST JOSEPH      SUNNY     78  60  53 S5        30.02F
CHILLICOTHE      N/A     78  62  57 S6        30.04S
KIRKSVILLE     SUNNY     77  61  57 VRB5      30.05S

$$
MOZ066>068-077>081-088>096-101>105-041800-
...SOUTHWEST MISSOURI...

CITY           SKY/WX    TMP DP  RH WIND       PRES   REMARKS
SPRINGFIELD    MOSUNNY   80  65  59 VRB3      30.03R
JOPLIN         MOSUNNY   82  68  62 E6        30.01R

$$
MOZ032>034-039>042-045>050-055>058-069>072-041800-
...CENTRAL MISSOURI...

CITY           SKY/WX    TMP DP  RH WIND       PRES   REMARKS
COLUMBIA       MOSUNNY   79  63  57 SE5       30.04R
JEFFERSON CITY SUNNY     79  59  50 VRB3      30.02S
ROLLA          MOSUNNY   77  65  66 NE3       30.03S
SEDALIA        SUNNY     80  61  52 SE5       30.04F
WHITEMAN AFB   SUNNY     78  62  58 VRB5      30.01F
WARRENSBURG    SUNNY     79  63  57 S3        30.02F
OSAGE BEACH    MOSUNNY   79  63  57 SE3       30.04S

$$
MOZ051-052-059>065-041800-
...EAST CENTRAL MISSOURI...

CITY           SKY/WX    TMP DP  RH WIND       PRES   REMARKS
ST LOUIS INTL  MOSUNNY   81  61  50 CALM      30.03S
SPIRIT OF STL  MOSUNNY   78  64  61 CALM      30.02S
ST CHARLES     CLOUDY    79  65  62 VRB3      30.02S

$$
MOZ072>076-082>087-097>100-106>115-041800-
...SOUTH CENTRAL AND SOUTHEAST MISSOURI...

CITY           SKY/WX    TMP DP  RH WIND       PRES   REMARKS
CAPE GIRARDEAU NOT AVBL
FARMINGTON     MOSUNNY   77  66  69 SE5       30.07S
POPLAR BLUFF   CLOUDY    78  70  76 NE7       30.00S
WEST PLAINS    PTSUNNY   76  66  71 E3        30.04S

$$


USA.gov is the U.S. government's official web portal to all federal, state and local government web resources and services.